Preview of NWS' New Version of Forecast
This preview is not operational and should not be used for support decisions.

Regional Weather Roundup (RWR)

Issued by Nashville, TN (OHX)

                            
000
ASUS44 KOHX 160810
RWROHX
MIDDLE TENNESSEE HOURLY WEATHER ROUNDUP
NATIONAL WEATHER SERVICE NASHVILLE TN
300 AM CDT TUE OCT 16 2018

NOTE: "FAIR" INDICATES FEW OR NO CLOUDS BELOW 12,000 FEET WITH
NO SIGNIFICANT WEATHER AND/OR OBSTRUCTIONS TO VISIBILITY.

* THESE REPORTS ARE NOT UNDER NWS QUALITY CONTROL AND MAY NOT
  REPORT WEATHER SUCH AS PRECIPITATION AND FOG.


TNZ005>011-023>034-057-059-062>066-078-080-160900
...NORTHERN MIDDLE TENNESSEE...
  
CITY           SKY/WX    TMP DP  RH WIND       PRES   REMARKS
CLARKSVILLE      N/A     44  39  82 NE7       30.28F                  
CROSSVILLE     CLOUDY    51  50  96 NE6       30.21F                  
DICKSON        CLOUDY    43  41  93 VRB6G14   30.25F                  
GALLATIN       CLOUDY    48  45  87 NW8       30.30R                  
LEBANON        CLOUDY    48  46  93 N8        30.24F                  
LIVINGSTON     CLOUDY    50  48  93 NE8       30.22R                  
NASHVILLE      CLOUDY    48  44  86 NW8       30.27S                  
PORTLAND       CLOUDY    45  45 100 N7        30.28R                  
ROCKWOOD       CLOUDY    52  52 100 CALM      30.19S                  
SMYRNA         LGT RAIN  50  47  89 N9        30.25F                  
SPARTA         CLOUDY    52  52 100 N6        30.22R FOG              
SPRINGFIELD    MOCLDY    45  43  93 N7        30.26F                  
WEST NASHVILLE CLOUDY    46  45  93 N8        30.26S                  
$$
TNZ056-058-060-061-075>077-079-093>097-160900
...SOUTHERN MIDDLE TENNESSEE...
  
CITY           SKY/WX    TMP DP  RH WIND       PRES   REMARKS
COLUMBIA       CLOUDY    50  50 100 N8        30.23S                  
FAYETTEVILLE   CLOUDY    54  50  87 N8        30.21S                  
LAWRENCEBURG   CLOUDY    52  48  87 N8        30.23R                  
LEWISBURG      CLOUDY    52  48  87 N7        30.23S                  
MURFREESBORO   CLOUDY    50  48  93 N8        30.23F                  
PULASKI        CLOUDY    54  50  87 VRB6      30.22F                  
SHELBYVILLE    CLOUDY    52  48  87 N8        30.23S                  
TULLAHOMA      CLOUDY    52  50  93 N5        30.22S                  
WINCHESTER     CLOUDY    54  52  94 N8        30.21S                  
$$


...KEY TO REMARKS...
VSB - VISIBILITY IN MILES
WCI - WIND CHILL INDEX
HX  - HEAT INDEX